DW4719 Vilanova I la Geltru ES current weather conditions

sailwx.info

Wind from 227 at 2 knots

Air temperature 19.4° C
Dewpoint 9.0° C

Last reported at 2017-Nov-24 12:09 UTC.
Time now 2017-Nov-24 12:39 UTC

Location: N 41°13' E 001°44'.
View on Google Maps.

See reports from other nearby stations

  
Tides and Currents Weather Stations Pressure Air Temp Water Temp Dewpoint Dewpoint Depression Visibility Wind Speed Wind Dir Waves Ship Positions
date/time (UTC)wind fromknots sea level pressurealtimeterstation pressurevisibilityair tempwater tempwave heightnotes
2017-Nov-24 12:09 227 2 19.4
2017-Nov-24 12:04 256 3 19.4
2017-Nov-24 11:59 267 3 18.9
2017-Nov-24 11:54 272 2 18.9
2017-Nov-24 11:48 224 2 18.9
2017-Nov-24 11:42 285 3 18.9
2017-Nov-24 11:39 264 3 18.9
2017-Nov-24 11:34 250 1 19.4
2017-Nov-24 11:28 263 0 20.0
2017-Nov-24 11:24 219 0 20.0
2017-Nov-24 11:19 233 19.4
2017-Nov-24 11:08 257 18.3
2017-Nov-24 11:04 257 18.3
2017-Nov-24 10:57 258 0 17.8
2017-Nov-24 10:54 258 0 17.8
2017-Nov-24 10:49 257 0 17.8
2017-Nov-24 10:44 257 0 17.2
2017-Nov-24 10:39 217 17.2
2017-Nov-24 10:33 059 17.2
2017-Nov-24 10:29 058 17.2
2017-Nov-24 10:24 058 16.7
2017-Nov-24 10:19 055 16.7
2017-Nov-24 10:15 055 16.1
2017-Nov-24 10:09 055 16.1
2017-Nov-24 10:04 055 16.1
2017-Nov-24 09:59 055 15.6
2017-Nov-24 09:54 055 15.6
2017-Nov-24 09:49 055 15.0
2017-Nov-24 09:44 055 15.0
2017-Nov-24 09:39 055 15.0
2017-Nov-24 09:34 055 0 14.4
2017-Nov-24 09:29 004 0 14.4
2017-Nov-24 09:24 004 0 13.9
2017-Nov-24 09:19 004 0 13.9
2017-Nov-24 09:12 004 13.3
2017-Nov-24 09:09 004 13.3
2017-Nov-24 09:04 004 13.3
2017-Nov-24 08:59 004 0 12.8
2017-Nov-24 08:54 004 0 12.8
2017-Nov-24 08:49 003 0 12.8
2017-Nov-24 08:44 003 0 12.8
2017-Nov-24 08:39 003 1 12.2
2017-Nov-24 08:34 360 1 12.2
2017-Nov-24 08:29 038 1 12.2
2017-Nov-24 08:24 034 1 12.2
2017-Nov-24 08:19 024 1 11.7
2017-Nov-24 08:14 357 0 11.7
2017-Nov-24 08:09 079 11.7
2017-Nov-24 08:04 079 0 11.7
2017-Nov-24 07:58 006 0 11.1
2017-Nov-24 07:54 014 0 11.1
2017-Nov-24 07:49 344 0 11.1
2017-Nov-24 07:44 360 1 11.1
2017-Nov-24 07:39 360 0 11.1
2017-Nov-24 07:34 018 0 11.1
2017-Nov-24 07:29 028 0 10.6
2017-Nov-24 07:24 028 0 10.6
2017-Nov-24 07:19 360 0 10.6
2017-Nov-24 07:15 360 0 10.6
2017-Nov-24 07:09 332 0 10.6
2017-Nov-24 07:04 068 1 10.6
2017-Nov-24 06:59 062 1 10.0
2017-Nov-24 06:54 011 0 10.0
2017-Nov-24 06:49 014 0 10.0
2017-Nov-24 06:44 014 0 10.0
2017-Nov-24 06:39 014 0 10.0
2017-Nov-24 06:34 014 1 10.0
2017-Nov-24 06:29 025 0 10.0
2017-Nov-24 06:24 064 1 10.0
2017-Nov-24 06:19 069 0 10.0
2017-Nov-24 06:14 028 0 10.0
2017-Nov-24 06:09 035 0 10.0
2017-Nov-24 06:04 034 0 10.0
2017-Nov-24 06:00 034 0 10.0
2017-Nov-24 05:52 360 1 10.0
2017-Nov-24 05:49 066 1 10.0
2017-Nov-24 05:43 083 1 10.0
2017-Nov-24 05:39 003 1 10.0
2017-Nov-24 05:34 003 1 10.0
2017-Nov-24 05:29 007 1 10.0
2017-Nov-24 05:24 010 1 10.0
2017-Nov-24 05:19 011 1 10.0
2017-Nov-24 05:14 010 0 10.0
2017-Nov-24 05:09 021 0 9.4
2017-Nov-24 05:04 003 0 9.4
2017-Nov-24 04:59 004 0 9.4
2017-Nov-24 04:54 066 0 9.4
2017-Nov-24 04:49 021 0 9.4
2017-Nov-24 04:44 360 0 9.4
2017-Nov-24 04:39 020 0 10.0
2017-Nov-24 04:34 030 0 10.0
2017-Nov-24 04:29 354 1 9.4
2017-Nov-24 04:24 016 0 10.0
2017-Nov-24 04:19 020 10.0
2017-Nov-24 04:14 020 0 10.0
2017-Nov-24 04:09 020 0 10.0
2017-Nov-24 04:04 035 0 10.0
2017-Nov-24 03:59 027 1 10.0
2017-Nov-24 03:54 014 1 10.0
2017-Nov-24 03:49 018 2 10.0
2017-Nov-24 03:43 360 2 10.0
2017-Nov-24 03:39 021 1 10.0
2017-Nov-24 03:33 003 1 10.0
2017-Nov-24 03:29 347 1 10.0
2017-Nov-24 03:23 360 0 10.0
2017-Nov-24 03:19 008 0 10.6
2017-Nov-24 03:14 017 0 10.6
2017-Nov-24 03:09 041 0 10.6
2017-Nov-24 03:03 047 0 10.6
2017-Nov-24 02:59 049 0 10.6
2017-Nov-24 02:54 049 0 10.6
2017-Nov-24 02:48 065 0 10.6
2017-Nov-24 02:44 078 10.6
2017-Nov-24 02:38 078 0 10.6
2017-Nov-24 02:34 078 1 10.6
2017-Nov-24 02:28 079 1 11.1
2017-Nov-24 02:24 360 1 10.6
2017-Nov-24 02:19 010 1 10.6
2017-Nov-24 02:14 041 1 11.1
2017-Nov-24 02:09 062 0 10.6
2017-Nov-24 02:04 054 1 11.1
2017-Nov-24 01:58 003 0 11.1
2017-Nov-24 01:54 027 11.1
2017-Nov-24 01:49 027 11.1
2017-Nov-24 01:44 027 11.1
2017-Nov-24 01:39 025 0 11.1
2017-Nov-24 01:34 025 0 11.1
2017-Nov-24 01:29 044 0 11.1
2017-Nov-24 01:24 044 11.1
2017-Nov-24 01:19 044 11.1
2017-Nov-24 01:14 044 11.1
2017-Nov-24 01:09 044 0 11.1
2017-Nov-24 01:04 038 1 11.1
2017-Nov-24 00:59 359 2 11.7
2017-Nov-24 00:53 003 1 11.7
2017-Nov-24 00:49 350 0 11.7
2017-Nov-24 00:43 092 11.7
2017-Nov-24 00:39 092 11.7
2017-Nov-24 00:34 092 11.7
2017-Nov-24 00:29 092 11.7
2017-Nov-24 00:24 090 11.7
2017-Nov-24 00:19 080 11.7
2017-Nov-24 00:14 082 11.7
2017-Nov-24 00:09 082 0 11.7
2017-Nov-24 00:04 080 11.7
2017-Nov-23 23:59 080 11.7
2017-Nov-23 23:54 080 11.7
2017-Nov-23 23:49 082 0 11.7
2017-Nov-23 23:44 082 0 11.7
2017-Nov-23 23:39 102 0 11.7
2017-Nov-23 23:34 360 0 11.7
2017-Nov-23 23:29 347 0 11.7
2017-Nov-23 23:24 003 0 11.7
2017-Nov-23 23:19 003 0 11.7
2017-Nov-23 23:14 010 1 11.7
2017-Nov-23 23:09 025 1 11.7
2017-Nov-23 23:04 024 1 11.7
2017-Nov-23 22:59 025 1 11.7
2017-Nov-23 22:54 025 1 11.7
2017-Nov-23 22:49 025 0 11.7
2017-Nov-23 22:44 031 0 11.7
2017-Nov-23 22:39 031 11.7
2017-Nov-23 22:34 030 11.7
2017-Nov-23 22:29 030 11.7
2017-Nov-23 22:24 030 12.2
2017-Nov-23 22:19 030 12.2
2017-Nov-23 22:14 028 12.2
2017-Nov-23 22:09 028 12.2
2017-Nov-23 22:04 028 12.2
2017-Nov-23 21:59 028 12.2
2017-Nov-23 21:54 031 12.2
2017-Nov-23 21:49 031 0 12.2
2017-Nov-23 21:44 031 0 12.2
2017-Nov-23 21:39 030 12.2
2017-Nov-23 21:34 030 12.2
2017-Nov-23 21:29 030 12.2
2017-Nov-23 21:24 030 12.2
2017-Nov-23 21:19 030 0 12.2
2017-Nov-23 21:14 032 12.2
2017-Nov-23 21:09 034 0 12.2
2017-Nov-23 21:04 035 0 12.8
2017-Nov-23 20:59 035 0 12.8
2017-Nov-23 20:54 047 12.8
2017-Nov-23 20:49 045 0 12.2
2017-Nov-23 20:44 360 0 12.2
2017-Nov-23 20:39 001 12.8
2017-Nov-23 20:34 004 12.8
2017-Nov-23 20:29 004 12.8
2017-Nov-23 20:24 004 12.8
2017-Nov-23 20:19 004 12.8
2017-Nov-23 20:14 004 12.8
2017-Nov-23 20:09 004 12.8
2017-Nov-23 20:04 004 12.8
2017-Nov-23 19:59 004 12.8
2017-Nov-23 19:54 004 0 12.8
2017-Nov-23 19:49 011 0 12.8
2017-Nov-23 19:44 011 1 12.8
2017-Nov-23 19:39 354 0 12.8
2017-Nov-23 19:34 329 0 13.3
2017-Nov-23 19:29 329 0 13.3
2017-Nov-23 19:24 357 0 13.3
2017-Nov-23 19:19 325 13.9
2017-Nov-23 19:14 325 13.9
2017-Nov-23 19:09 325 13.9
2017-Nov-23 19:04 325 13.9
2017-Nov-23 19:00 325 13.9
2017-Nov-23 18:54 325 14.4
2017-Nov-23 18:49 325 14.4
2017-Nov-23 18:44 325 14.4
2017-Nov-23 18:39 325 14.4
2017-Nov-23 18:34 325 14.4
2017-Nov-23 18:29 325 14.4
2017-Nov-23 18:24 325 14.4
2017-Nov-23 18:19 325 14.4
2017-Nov-23 18:14 325 15.0
2017-Nov-23 18:09 325 15.0
2017-Nov-23 18:04 323 15.6
2017-Nov-23 18:00 323 15.6
2017-Nov-23 17:54 323 15.6
2017-Nov-23 17:49 323 15.6
2017-Nov-23 17:37 323 16.1
2017-Nov-23 17:34 323 0 16.1
2017-Nov-23 17:29 284 0 16.1
2017-Nov-23 17:24 285 0 16.1
2017-Nov-23 17:19 285 1 16.1
2017-Nov-23 17:14 270 1 16.1
2017-Nov-23 17:09 271 1 16.7
2017-Nov-23 17:04 277 1 16.7
2017-Nov-23 16:59 282 1 16.7
2017-Nov-23 16:54 284 0 16.7
2017-Nov-23 16:49 275 1 16.7
2017-Nov-23 16:44 268 1 16.7
2017-Nov-23 16:39 271 0 16.7
2017-Nov-23 16:34 277 1 16.7
2017-Nov-23 16:29 275 1 16.7
2017-Nov-23 16:24 263 1 16.7
2017-Nov-23 16:19 257 1 16.7
2017-Nov-23 16:14 261 0 17.2
2017-Nov-23 16:09 272 1 17.2
2017-Nov-23 16:04 271 2 17.2
2017-Nov-23 15:59 271 2 17.2
2017-Nov-23 15:54 263 2 17.2
2017-Nov-23 15:49 250 1 17.2
2017-Nov-23 15:44 254 2 17.2
2017-Nov-23 15:39 265 2 17.8
2017-Nov-23 15:34 287 2 17.8
2017-Nov-23 15:29 271 2 17.8
2017-Nov-23 15:24 251 2 17.8
2017-Nov-23 15:19 251 2 17.8
2017-Nov-23 15:14 250 2 18.3
2017-Nov-23 15:09 227 2 18.3
2017-Nov-23 15:04 271 2 18.3
2017-Nov-23 14:59 209 2 18.3
2017-Nov-23 14:54 282 2 18.3
2017-Nov-23 14:49 256 3 18.3
2017-Nov-23 14:44 236 3 18.3
2017-Nov-23 14:39 253 3 18.3
2017-Nov-23 14:34 234 2 18.3
2017-Nov-23 14:29 261 1 18.3
2017-Nov-23 14:24 263 2 18.3
2017-Nov-23 14:19 258 2 18.3
2017-Nov-23 14:14 224 2 18.3
2017-Nov-23 14:09 193 2 18.3
2017-Nov-23 14:04 280 2 18.3
2017-Nov-23 13:59 219 2 18.3
2017-Nov-23 13:54 274 2 18.3
2017-Nov-23 13:49 241 3 18.3
2017-Nov-23 13:44 234 4 18.3
2017-Nov-23 13:39 263 5 18.3
2017-Nov-23 13:35 258 5 18.3
2017-Nov-23 13:29 282 4 18.3
2017-Nov-23 13:24 241 4 18.3
2017-Nov-23 13:19 254 3 18.3
2017-Nov-23 13:14 264 3 18.3
2017-Nov-23 13:09 281 4 18.3
2017-Nov-23 13:04 256 4 18.3
2017-Nov-23 12:59 254 4 18.3
2017-Nov-23 12:54 281 3 18.3
2017-Nov-23 12:49 278 3 18.3
2017-Nov-23 12:44 267 4 18.3
2017-Nov-23 12:39 277 2 18.3
2017-Nov-23 12:34 241 2 18.3
2017-Nov-23 12:29 254 4 18.3
2017-Nov-23 12:23 288 3 17.8
2017-Nov-23 12:19 244 2 17.8
2017-Nov-23 12:14 233 3 17.8
2017-Nov-23 12:09 227 4 17.8
2017-Nov-23 12:04 265 5 17.8
2017-Nov-23 11:59 288 5 18.3
2017-Nov-23 11:54 229 5 18.3
2017-Nov-23 11:49 280 5 18.3
2017-Nov-23 11:44 250 5 18.9
2017-Nov-23 11:39 271 5 18.3
2017-Nov-23 11:34 223 4 18.9
2017-Nov-23 11:29 254 4 18.9
2017-Nov-23 11:24 257 4 18.3
2017-Nov-23 11:19 278 4 18.3
2017-Nov-23 11:14 271 4 18.3
2017-Nov-23 11:09 260 3 18.3
2017-Nov-23 11:04 254 3 18.3
2017-Nov-23 10:59 263 2 17.8
2017-Nov-23 10:54 299 1 17.8
2017-Nov-23 10:49 274 0 17.8
2017-Nov-23 10:44 296 0 17.8
2017-Nov-23 10:39 291 1 17.2
2017-Nov-23 10:34 285 1 17.2
2017-Nov-23 10:29 289 1 17.2
2017-Nov-23 10:24 289 1 17.2
2017-Nov-23 10:19 275 2 17.2
2017-Nov-23 10:14 274 2 17.2
2017-Nov-23 10:09 256 2 16.7
2017-Nov-23 10:04 280 2 16.7
2017-Nov-23 09:59 278 2 16.7
2017-Nov-23 09:54 292 0 16.1
2017-Nov-23 09:49 360 16.1
2017-Nov-23 09:44 360 15.6
2017-Nov-23 09:39 003 15.6
2017-Nov-23 09:34 007 15.0
2017-Nov-23 09:29 007 15.0
2017-Nov-23 09:24 359 14.4
2017-Nov-23 09:19 359 14.4
2017-Nov-23 09:14 243 1 13.9
2017-Nov-23 09:10 068 1 13.9
2017-Nov-23 09:04 085 0 13.3
2017-Nov-23 08:59 090 12.8
2017-Nov-23 08:54 082 12.8
2017-Nov-23 08:49 086 12.8
2017-Nov-23 08:44 085 0 12.8
2017-Nov-23 08:39 080 1 12.2
2017-Nov-23 08:34 072 2 12.2
2017-Nov-23 08:29 076 2 12.2
2017-Nov-23 08:22 055 0 12.2
2017-Nov-23 08:19 066 0 12.2
2017-Nov-23 08:14 124 1 12.2
2017-Nov-23 08:09 128 2 11.7
2017-Nov-23 08:04 079 1 11.7
2017-Nov-23 07:59 086 1 11.7
2017-Nov-23 07:54 078 2 11.7
2017-Nov-23 07:49 064 1 11.7
2017-Nov-23 07:44 034 1 11.7
2017-Nov-23 07:39 110 2 11.7
2017-Nov-23 07:34 093 2 11.7
2017-Nov-23 07:29 069 2 11.1
2017-Nov-23 07:24 119 1 11.1
2017-Nov-23 07:19 104 0 11.1
2017-Nov-23 07:14 090 0 11.1
2017-Nov-23 07:09 086 0 11.1
2017-Nov-23 07:04 090 1 11.1
2017-Nov-23 06:59 080 1 11.1
2017-Nov-23 06:54 083 1 10.6
2017-Nov-23 06:49 082 2 10.6
2017-Nov-23 06:44 078 2 10.6
2017-Nov-23 06:39 092 2 10.6
2017-Nov-23 06:34 080 3 10.6
2017-Nov-23 06:29 090 4 10.6
2017-Nov-23 06:24 040 3 10.6
2017-Nov-23 06:19 076 2 10.6
2017-Nov-23 06:14 078 2 10.6
2017-Nov-23 06:09 056 1 10.6
2017-Nov-23 06:04 078 2 10.6
2017-Nov-23 05:59 065 2 10.6
2017-Nov-23 05:54 052 1 10.6
2017-Nov-23 05:49 096 0 10.6
2017-Nov-23 05:44 068 0 10.6
2017-Nov-23 05:39 085 1 10.6
2017-Nov-23 05:34 071 1 10.6
2017-Nov-23 05:29 095 1 10.6
2017-Nov-23 05:24 076 2 10.6
2017-Nov-23 05:19 110 2 10.6
2017-Nov-23 05:14 088 1 10.6
2017-Nov-23 05:09 065 1 10.6
2017-Nov-23 05:04 062 1 10.6
2017-Nov-23 04:59 069 1 10.6
2017-Nov-23 04:54 089 2 10.6
2017-Nov-23 04:49 086 1 10.6
2017-Nov-23 04:44 072 0 10.0
2017-Nov-23 04:39 102 0 10.0
2017-Nov-23 04:34 083 0 10.0
2017-Nov-23 04:29 069 1 10.0
2017-Nov-23 04:24 080 1 10.0
2017-Nov-23 04:19 055 0 10.0
2017-Nov-23 04:14 075 0 10.0
2017-Nov-23 04:09 079 0 10.0
2017-Nov-23 04:04 082 10.0
2017-Nov-23 03:59 076 0 10.0
2017-Nov-23 03:54 099 0 10.0
2017-Nov-23 03:49 096 1 10.0
2017-Nov-23 03:44 086 2 10.0
2017-Nov-23 03:39 069 0 10.0
2017-Nov-23 03:34 085 10.0
2017-Nov-23 03:29 040 10.0
2017-Nov-23 03:24 047 0 10.0
2017-Nov-23 03:19 071 0 10.0
2017-Nov-23 03:14 102 10.0
2017-Nov-23 03:09 032 0 10.0
2017-Nov-23 03:04 041 0 10.0
2017-Nov-23 02:59 054 0 10.0
2017-Nov-23 02:54 059 0 10.0
2017-Nov-23 02:49 058 0 10.0
2017-Nov-23 02:44 069 0 10.0
2017-Nov-23 02:39 052 0 10.0
2017-Nov-23 02:34 072 0 10.0
2017-Nov-23 02:29 079 0 10.0
2017-Nov-23 02:24 068 1 10.0
2017-Nov-23 02:19 096 1 10.0
2017-Nov-23 02:14 086 0 10.0
2017-Nov-23 02:09 089 0 10.0
2017-Nov-23 02:04 086 1 10.0
2017-Nov-23 01:59 078 1 10.0
2017-Nov-23 01:54 109 1 10.0
2017-Nov-23 01:49 082 1 10.0
2017-Nov-23 01:44 078 1 10.0
2017-Nov-23 01:39 075 0 10.0
2017-Nov-23 01:34 082 0 10.6
2017-Nov-23 01:29 068 0 10.6
2017-Nov-23 01:24 086 0 10.0
2017-Nov-23 01:19 071 0 10.0
2017-Nov-23 01:14 065 0 10.6
2017-Nov-23 01:09 076 0 10.6
2017-Nov-23 01:04 080 0 10.6
2017-Nov-23 00:59 079 1 10.6
2017-Nov-23 00:54 085 1 10.6
2017-Nov-23 00:49 082 1 10.6
2017-Nov-23 00:44 064 0 10.6
2017-Nov-23 00:39 088 10.6
2017-Nov-23 00:34 075 0 10.6
2017-Nov-23 00:29 076 0 10.6
2017-Nov-23 00:24 058 10.6
2017-Nov-23 00:19 090 0 10.6
2017-Nov-23 00:14 095 1 10.6
2017-Nov-23 00:09 069 0 10.6
2017-Nov-23 00:04 078 10.6
2017-Nov-22 23:59 078 0 11.1
2017-Nov-22 23:54 082 0 11.1
2017-Nov-22 23:49 080 0 11.1
2017-Nov-22 23:44 075 0 10.6
2017-Nov-22 23:39 075 11.1
2017-Nov-22 23:34 071 11.1
2017-Nov-22 23:29 072 11.1
2017-Nov-22 23:24 069 11.1
2017-Nov-22 23:19 062 11.1
2017-Nov-22 23:14 075 11.1
2017-Nov-22 23:06 075 0 11.1
2017-Nov-22 23:04 076 11.1
2017-Nov-22 22:59 075 11.1
2017-Nov-22 22:54 075 11.1
2017-Nov-22 22:49 073 11.1
2017-Nov-22 22:44 073 0 11.1
2017-Nov-22 22:39 073 0 11.7
2017-Nov-22 22:34 069 0 11.7
2017-Nov-22 22:29 068 0 11.7
2017-Nov-22 22:24 038 11.7
2017-Nov-22 22:19 025 11.7
2017-Nov-22 22:14 025 11.7
2017-Nov-22 22:09 021 11.7
2017-Nov-22 22:04 020 11.1
2017-Nov-22 21:58 020 11.7
2017-Nov-22 21:54 020 11.7
2017-Nov-22 21:49 020 11.7
2017-Nov-22 21:44 020 11.7
2017-Nov-22 21:39 020 11.7
2017-Nov-22 21:34 020 11.7
2017-Nov-22 21:29 020 11.7
2017-Nov-22 21:24 020 11.7
2017-Nov-22 21:19 020 12.2
2017-Nov-22 21:14 018 12.2
2017-Nov-22 21:09 017 12.2
2017-Nov-22 21:04 017 12.2
2017-Nov-22 20:59 017 12.2
2017-Nov-22 20:54 017 12.2
2017-Nov-22 20:49 014 12.2
2017-Nov-22 20:44 014 12.2
2017-Nov-22 20:39 014 12.2
2017-Nov-22 20:33 014 12.2
2017-Nov-22 20:28 014 12.2
2017-Nov-22 20:23 014 12.2
2017-Nov-22 20:19 014 12.2
2017-Nov-22 20:14 014 12.2
2017-Nov-22 20:07 013 12.2
2017-Nov-22 20:04 013 12.2
2017-Nov-22 19:59 013 12.2
2017-Nov-22 19:54 014 12.2
2017-Nov-22 19:49 014 12.2
2017-Nov-22 19:44 014 12.2
2017-Nov-22 19:39 014 12.2
2017-Nov-22 19:34 014 12.2
2017-Nov-22 19:29 014 12.8
2017-Nov-22 19:24 014 12.8
2017-Nov-22 19:19 014 12.8
2017-Nov-22 19:14 014 12.8
2017-Nov-22 19:09 013 0 12.8
2017-Nov-22 19:04 014 12.8
2017-Nov-22 18:59 013 12.8
2017-Nov-22 18:54 014 13.3
2017-Nov-22 18:49 014 13.3
2017-Nov-22 18:44 014 13.3
2017-Nov-22 18:39 014 13.9
2017-Nov-22 18:34 014 13.9
2017-Nov-22 18:29 013 13.9
2017-Nov-22 18:24 014 13.9
2017-Nov-22 18:19 014 13.9
2017-Nov-22 18:12 014 13.9
2017-Nov-22 18:08 014 13.9
2017-Nov-22 18:04 013 14.4
2017-Nov-22 17:58 013 0 14.4
2017-Nov-22 17:54 013 0 14.4
2017-Nov-22 17:49 350 0 14.4
2017-Nov-22 17:42 316 15.0
2017-Nov-22 17:39 315 15.0
2017-Nov-22 17:30 272 15.6
2017-Nov-22 17:29 272 0 15.6
2017-Nov-22 17:23 272 1 15.6
2017-Nov-22 17:19 277 1 15.6
2017-Nov-22 17:14 265 1 15.6
2017-Nov-22 17:08 265 2 15.6
2017-Nov-22 17:04 278 2 15.6
2017-Nov-22 16:59 247 2 15.6
2017-Nov-22 16:54 263 2 15.6
2017-Nov-22 16:48 260 2 15.6
2017-Nov-22 16:44 285 2 16.1
2017-Nov-22 16:39 260 2 16.1
2017-Nov-22 16:34 265 1 16.1
2017-Nov-22 16:29 263 2 16.1
2017-Nov-22 16:16 265 2 16.7
2017-Nov-22 16:14 265 2 16.7
2017-Nov-22 16:08 270 2 16.7
2017-Nov-22 16:04 263 3 16.7
2017-Nov-22 15:59 263 3 16.7
2017-Nov-22 15:54 270 2 17.2
2017-Nov-22 15:48 244 2 17.2
2017-Nov-22 15:44 274 2 17.2
2017-Nov-22 15:39 261 2 17.2
2017-Nov-22 15:34 261 1 17.8
2017-Nov-22 15:29 250 1 17.8
2017-Nov-22 15:24 244 1 17.8
2017-Nov-22 15:19 241 1 17.8
2017-Nov-22 15:14 272 1 17.8
2017-Nov-22 15:09 264 1 18.3
2017-Nov-22 15:04 243 1 18.3
2017-Nov-22 14:58 205 1 18.3
2017-Nov-22 14:54 226 1 18.3
2017-Nov-22 14:49 264 1 18.3
2017-Nov-22 14:42 261 1 18.3
2017-Nov-22 14:39 230 2 18.3
2017-Nov-22 14:34 270 2 18.3
2017-Nov-22 14:29 260 2 18.3
2017-Nov-22 14:24 257 2 18.3
2017-Nov-22 14:18 229 3 18.3
2017-Nov-22 14:14 254 3 18.3
2017-Nov-22 14:09 258 2 18.3
2017-Nov-22 14:04 285 2 18.3
2017-Nov-22 13:59 240 3 18.3
2017-Nov-22 13:54 268 3 18.3
2017-Nov-22 13:49 263 3 18.3
2017-Nov-22 13:44 222 3 18.3
2017-Nov-22 13:39 299 3 18.3
2017-Nov-22 13:34 264 3 18.9
2017-Nov-22 13:29 216 2 18.9
2017-Nov-22 13:24 274 2 18.9
2017-Nov-22 13:19 267 3 18.3
2017-Nov-22 13:14 256 2 18.3
2017-Nov-22 13:09 258 3 18.3
2017-Nov-22 13:04 270 4 18.3
2017-Nov-22 12:59 229 3 18.3
2017-Nov-22 12:54 233 3 18.3
2017-Nov-22 12:49 274 4 18.3
2017-Nov-22 12:44 247 3 17.8
2017-Nov-22 12:39 247 3 18.3
2017-Nov-22 12:34 253 3 18.3
2017-Nov-22 12:29 258 3 18.3
2017-Nov-22 12:24 248 3 18.3
2017-Nov-22 12:19 248 3 18.3
2017-Nov-22 12:14 251 3 18.3
2017-Nov-22 12:09 208 2 18.3
2017-Nov-22 12:04 298 2 18.3